Wetterstats.de || Aktuelle Messwerte || Aktuelle Wetterkarten NEU! || Radar / Satellit NEU! || Wetterarchiv || Langzeitwerte NEU! || Klim. Kenntage || Met. Ereignisse || Agrarwerte || Echtzeitwerte

Monatsübersicht für August 2020 Diagramm
 
Wetter Information zur Wetteranzeige
Zeitraffer
Tageslänge (hh:mm)
Höchsttemperatur in °C
Uhrzeit
Tiefsttemperatur in °C
Uhrzeit
Luftfeuchte (max., in %)
Uhrzeit
Luftfeuchte (min., in %)
Uhrzeit
Luftdruck (max., in hPa)
Uhrzeit
Luftdruck (min., in hPa)
Uhrzeit
Luftdruck (Ø, in hPa)
Regenrate (max, mm/h)
Uhrzeit
Niederschlag in mm
Verdunstung in mm
Solar in W/m² (Ø)
Solar in W/m² (max.)
UV-Index (max.)
Sonnenscheindauer (hh:mm)
Windrichtung (Ø)
Windstärke (Ø in km/h)
Windstärke (Ø in bft)
Windböe (max., in km/h)
Uhrzeit
Windböe (max., in bft)
Uhrzeit
Taupunkt (max., in °C)
Uhrzeit
Taupunkt (min., in °C)
Uhrzeit
Windchill (min., in °C)
Uhrzeit
Gewitterindex (max.)
Uhrzeit
Waldbrandindex (max.)
Uhrzeit
Graslandfeuerindex (max.)
Uhrzeit
Staubsturm-Index (max.)
Uhrzeit
01
Zeitraffer
15:35
32.5
15:45 Uhr
13.8
05:35 Uhr

86
04:40 Uhr
24
14:55 Uhr
1018.7
00:10 Uhr

1013.8
22:55 Uhr
1016.3
0,000
00:00 Uhr
0,000
5.461
429
784
14:00 Uhr
6.8
13:15 Uhr

12:27:00
4,7
1
24,1
16:50 Uhr

4
14.4
09:55 Uhr
8.1
15:20 Uhr
13.8
05:35 Uhr
6
00:00 Uhr
5.1
16:35 Uhr
5.9
16:35 Uhr
3.0
17:15 Uhr
02
Zeitraffer
15:32
24.1
09:35 Uhr
18.6
23:50 Uhr

94
20:15 Uhr
48
00:00 Uhr
1014.2
00:00 Uhr

1011.7
09:30 Uhr
1012.7
4,800
12:40 Uhr
3,200
1.626
109
508
09:30 Uhr
2.1
09:25 Uhr

00:20:00
3,5
1
24,1
11:55 Uhr

4
19.1
18:30 Uhr
10.7
02:55 Uhr
18.6
23:50 Uhr
12
21:40 Uhr
4.3
00:00 Uhr
5.9
00:00 Uhr
3.6
11:30 Uhr
03
Zeitraffer
15:28
24.8
17:15 Uhr
16.7
03:45 Uhr

94
04:10 Uhr
40
17:15 Uhr
1012.7
00:00 Uhr

1010.1
18:20 Uhr
1011.7
0,000
00:00 Uhr
0,000
2.515
223
873
14:45 Uhr
5.6
14:10 Uhr

04:01:00
5,1
1
22,5
17:55 Uhr

4
16.7
00:00 Uhr
9.1
19:05 Uhr
14.1
08:30 Uhr
11
00:00 Uhr
1.9
17:05 Uhr
4.7
18:05 Uhr
0.0
00:00 Uhr
04
Zeitraffer
15:25
24.6
18:05 Uhr
13.2
04:25 Uhr

85
04:25 Uhr
40
17:10 Uhr
1017.7
23:15 Uhr

1011.5
00:10 Uhr
1013.9
0,000
00:00 Uhr
0,000
3.353
279
933
12:55 Uhr
6.1
12:45 Uhr

05:24:00
3,8
1
20,9
10:50 Uhr

4
12.6
08:55 Uhr
8.9
13:45 Uhr
13.2
04:25 Uhr
4
08:55 Uhr
2.8
16:35 Uhr
5.4
16:50 Uhr
2.1
11:55 Uhr
05
Zeitraffer
15:22
29.5
16:50 Uhr
10.6
05:30 Uhr

90
06:15 Uhr
29
15:45 Uhr
1020.0
23:50 Uhr

1017.3
00:25 Uhr
1018.8
0,000
00:00 Uhr
0,000
4.775
415
818
12:20 Uhr
6.3
12:40 Uhr

12:31:00
3,1
1
24,1
15:30 Uhr

4
12.7
08:45 Uhr
8.6
15:05 Uhr
10.6
05:30 Uhr
4
08:45 Uhr
3.3
16:00 Uhr
5.9
15:10 Uhr
2.7
15:30 Uhr
06
Zeitraffer
15:18
32.2
18:30 Uhr
13.7
05:10 Uhr

81
05:20 Uhr
28
15:45 Uhr
1023.2
10:25 Uhr

1019.9
00:15 Uhr
1021.8
0,000
00:00 Uhr
0,000
5.436
423
763
13:15 Uhr
6.3
12:55 Uhr

12:27:00
3,9
1
24,1
17:40 Uhr

4
14.1
22:10 Uhr
9.1
00:20 Uhr
13.7
05:10 Uhr
8
22:10 Uhr
5.9
15:00 Uhr
5.9
00:00 Uhr
3.6
11:10 Uhr
07
Zeitraffer
15:15
36.1
17:40 Uhr
17.9
05:55 Uhr

76
05:55 Uhr
35
17:20 Uhr
1023.4
08:05 Uhr

1020.3
19:35 Uhr
1022.1
0,000
00:00 Uhr
0,000
5.004
381
814
11:30 Uhr
6.0
12:45 Uhr

10:38:00
3,5
1
27,4
12:55 Uhr

4
18.7
14:05 Uhr
13.2
00:00 Uhr
17.9
05:55 Uhr
13
21:30 Uhr
5.9
14:10 Uhr
5.9
00:00 Uhr
3.6
12:40 Uhr
08
Zeitraffer
15:11
39.4
14:40 Uhr
19.8
05:50 Uhr

78
05:50 Uhr
23
16:50 Uhr
1021.5
08:55 Uhr

1018.3
19:15 Uhr
1020.0
0,000
00:05 Uhr
0,000
10.109
400
725
13:25 Uhr
5.8
13:15 Uhr

11:31:00
2,4
1
19,3
13:30 Uhr

3
19.3
10:35 Uhr
12.6
15:10 Uhr
19.8
05:50 Uhr
13
00:05 Uhr
5.9
11:25 Uhr
5.9
00:05 Uhr
2.7
11:45 Uhr
09
Zeitraffer
15:07
37.6
13:00 Uhr
21.0
05:35 Uhr

75
05:35 Uhr
25
13:00 Uhr
1019.0
09:05 Uhr

1016.4
16:15 Uhr
1017.9
0,000
00:00 Uhr
0,000
4.115
322
771
13:20 Uhr
5.6
13:20 Uhr

07:15:00
3,3
1
32,2
16:55 Uhr

5
20.2
20:05 Uhr
13.7
15:35 Uhr
21.0
05:35 Uhr
14
21:25 Uhr
5.9
00:00 Uhr
5.9
00:00 Uhr
4.4
17:00 Uhr
10
Zeitraffer
15:04
34.0
14:01 Uhr
21.6
06:40 Uhr

75
03:40 Uhr
36
16:20 Uhr
1019.0
12:35 Uhr

1017.1
03:15 Uhr
1018.0
0,000
00:00 Uhr
0,000
4.394
340
807
13:30 Uhr
5.7
13:30 Uhr

07:12:00
5,0
1
25,7
19:55 Uhr

4
19.1
19:10 Uhr
15.9
16:55 Uhr
21.6
06:40 Uhr
13
21:20 Uhr
5.9
00:00 Uhr
5.9
00:00 Uhr
3.5
19:55 Uhr
11
Zeitraffer
15:00
33.0
16:00 Uhr
19.5
06:00 Uhr

78
06:00 Uhr
24
16:35 Uhr
1020.9
12:30 Uhr

1018.6
18:15 Uhr
1019.7
0,000
00:00 Uhr
0,000
5.410
405
734
13:25 Uhr
5.9
13:20 Uhr

11:47:00
7,6
2
27,4
14:45 Uhr

4
18.7
09:55 Uhr
9.4
16:35 Uhr
19.5
06:00 Uhr
11
00:00 Uhr
5.9
00:00 Uhr
5.9
00:00 Uhr
4.2
12:00 Uhr
12
Zeitraffer
14:56
32.2
16:00 Uhr
18.8
05:50 Uhr

68
06:15 Uhr
23
17:45 Uhr
1020.9
10:30 Uhr

1016.9
19:05 Uhr
1019.3
0,000
00:00 Uhr
0,000
5.842
411
740
13:00 Uhr
6.1
13:05 Uhr

11:57:00
6,6
1
25,7
14:00 Uhr

4
14.5
10:45 Uhr
8.1
18:30 Uhr
18.2
05:45 Uhr
8
01:45 Uhr
5.9
00:00 Uhr
5.9
00:00 Uhr
3.8
12:15 Uhr
13
Zeitraffer
14:53
31.5
14:00 Uhr
18.6
05:50 Uhr

64
21:55 Uhr
35
15:10 Uhr
1017.4
00:00 Uhr

1013.0
19:10 Uhr
1014.9
0,000
00:00 Uhr
0,000
3.581
245
806
15:30 Uhr
4.7
12:25 Uhr

05:32:00
3,7
1
20,9
12:40 Uhr

4
18.1
21:55 Uhr
9.5
05:30 Uhr
18.6
05:50 Uhr
12
21:15 Uhr
5.9
00:00 Uhr
5.9
00:00 Uhr
3.5
09:00 Uhr
14
Zeitraffer
14:49
28.7
15:00 Uhr
20.2
04:35 Uhr

73
04:35 Uhr
39
15:40 Uhr
1013.9
00:00 Uhr

1012.5
18:55 Uhr
1013.2
0,000
00:00 Uhr
0,000
3.277
242
703
15:10 Uhr
4.8
11:45 Uhr

03:35:00
4,4
1
20,9
15:05 Uhr

4
18.1
14:35 Uhr
13.0
03:30 Uhr
20.1
05:45 Uhr
11
00:00 Uhr
5.9
00:00 Uhr
5.9
00:00 Uhr
3.4
15:10 Uhr
15
Zeitraffer
14:45
31.6
15:00 Uhr
17.7
05:45 Uhr

83
05:45 Uhr
32
15:30 Uhr
1015.4
12:30 Uhr

1013.3
05:35 Uhr
1014.4
0,000
00:00 Uhr
0,000
4.597
366
844
12:20 Uhr
5.3
13:05 Uhr

10:24:00
3,1
1
19,3
13:20 Uhr

3
17.2
08:35 Uhr
12.8
17:30 Uhr
17.7
05:45 Uhr
10
21:10 Uhr
5.9
00:00 Uhr
5.9
00:00 Uhr
3.3
17:55 Uhr


 
Wetter Information zur Wetteranzeige
Zeitraffer
Tageslänge (hh:mm)
Höchsttemperatur in °C
Uhrzeit
Tiefsttemperatur in °C
Uhrzeit
Luftfeuchte (max., in %)
Uhrzeit
Luftfeuchte (min., in %)
Uhrzeit
Luftdruck (max., in hPa)
Uhrzeit
Luftdruck (min., in hPa)
Uhrzeit
Luftdruck (Ø, in hPa)
Regenrate (max, mm/h)
Uhrzeit
Niederschlag in mm
Verdunstung in mm
Solar in W/m² (Ø)
Solar in W/m² (max.)
UV-Index (max.)
Sonnenscheindauer (hh:mm)
Windrichtung (Ø)
Windstärke (Ø in km/h)
Windstärke (Ø in bft)
Windböe (max., in km/h)
Uhrzeit
Windböe (max., in bft)
Uhrzeit
Taupunkt (max., in °C)
Uhrzeit
Taupunkt (min., in °C)
Uhrzeit
Windchill (min., in °C)
Uhrzeit
Gewitterindex (max.)
Uhrzeit
Waldbrandindex (max.)
Uhrzeit
Graslandfeuerindex (max.)
Uhrzeit
Staubsturm-Index (max.)
Uhrzeit
16
Zeitraffer
14:42
30.8
16:00 Uhr
18.2
06:20 Uhr

83
04:55 Uhr
25
15:40 Uhr
1016.2
10:05 Uhr

1012.5
22:15 Uhr
1014.5
0,000
00:00 Uhr
0,000
4.902
402
719
13:20 Uhr
5.6
12:55 Uhr

11:38:00
6,2
1
30,6
11:30 Uhr

5
16.4
01:05 Uhr
7.8
18:50 Uhr
18.2
06:20 Uhr
10
00:00 Uhr
5.9
00:00 Uhr
5.9
00:00 Uhr
4.4
13:25 Uhr
17
Zeitraffer
14:38
33.6
17:00 Uhr
17.0
06:05 Uhr

73
06:05 Uhr
24
16:45 Uhr
1012.7
00:15 Uhr

1007.9
19:25 Uhr
1010.1
0,000
00:00 Uhr
0,000
4.851
382
768
13:05 Uhr
5.5
13:30 Uhr

09:54:00
4,2
1
20,9
10:50 Uhr

4
16.3
23:55 Uhr
10.0
18:45 Uhr
17.0
06:05 Uhr
10
23:30 Uhr
5.9
00:00 Uhr
5.9
00:00 Uhr
3.5
10:50 Uhr
18
Zeitraffer
14:34
27.1
17:00 Uhr
18.2
23:45 Uhr

93
09:40 Uhr
54
15:40 Uhr
1010.6
23:55 Uhr

1008.6
01:30 Uhr
1009.4
16,800
09:20 Uhr
11,600
2.286
193
798
14:20 Uhr
5.4
14:15 Uhr

02:55:00
5,2
1
25,7
05:50 Uhr

4
18.9
12:30 Uhr
15.5
18:50 Uhr
17.0
10:20 Uhr
11
04:10 Uhr
5.9
00:00 Uhr
5.9
00:00 Uhr
3.9
06:05 Uhr
19
Zeitraffer
14:31
27.7
19:00 Uhr
16.5
06:10 Uhr

94
04:35 Uhr
46
18:20 Uhr
1011.5
10:15 Uhr

1009.8
02:15 Uhr
1010.6
0,000
00:00 Uhr
0,000
3.429
335
874
13:50 Uhr
5.5
13:05 Uhr

08:33:00
3,9
1
17,7
10:15 Uhr

3
17.6
10:50 Uhr
14.0
18:50 Uhr
16.5
06:10 Uhr
11
00:00 Uhr
0.0
00:00 Uhr
4.3
18:35 Uhr
0.0
00:00 Uhr
20
Zeitraffer
14:26
30.3
14:00 Uhr
15.5
06:10 Uhr

91
05:55 Uhr
36
14:15 Uhr
1012.1
23:55 Uhr

1010.4
02:10 Uhr
1011.0
0,000
00:00 Uhr
0,000
3.632
310
839
13:20 Uhr
6.4
13:20 Uhr

06:21:00
3,1
1
24,1
12:00 Uhr

4
17.2
21:20 Uhr
13.9
14:40 Uhr
15.5
06:10 Uhr
11
21:15 Uhr
2.6
14:10 Uhr
5.9
00:00 Uhr
3.4
12:05 Uhr
21
Zeitraffer
14:22
36.4
17:00 Uhr
18.7
05:50 Uhr

81
05:45 Uhr
30
15:25 Uhr
1012.2
00:00 Uhr

1009.2
18:30 Uhr
1011.0
0,000
00:00 Uhr
0,000
4.928
373
725
14:15 Uhr
6.1
12:45 Uhr

09:21:00
4,4
1
35,4
12:10 Uhr

5
20.3
23:40 Uhr
15.4
05:35 Uhr
18.7
05:50 Uhr
15
22:25 Uhr
2.9
16:00 Uhr
5.9
00:00 Uhr
4.2
12:40 Uhr
22
Zeitraffer
14:19
26.6
00:00 Uhr
18.4
23:55 Uhr

94
09:25 Uhr
61
17:55 Uhr
1014.3
22:45 Uhr

1011.2
00:10 Uhr
1013.1
24,000
18:35 Uhr
8,600
2.134
176
632
13:25 Uhr
5.1
13:25 Uhr

02:15:00
4,5
1
30,6
18:30 Uhr

5
20.6
10:55 Uhr
17.3
18:15 Uhr
18.4
23:55 Uhr
15
00:00 Uhr
5.6
00:00 Uhr
5.9
00:00 Uhr
2.7
07:10 Uhr
23
Zeitraffer
14:15
24.4
13:00 Uhr
15.1
05:20 Uhr

93
00:00 Uhr
40
19:05 Uhr
1014.9
01:55 Uhr

1012.7
18:50 Uhr
1013.9
0,000
00:00 Uhr
0,000
4.216
357
986
13:25 Uhr
6.1
13:20 Uhr

07:51:00
7,4
2
38,6
15:05 Uhr

5
17.2
00:00 Uhr
9.2
19:10 Uhr
15.1
05:20 Uhr
11
00:00 Uhr
0.0
00:00 Uhr
3.4
15:05 Uhr
0.0
00:00 Uhr
24
Zeitraffer
14:11
23.0
17:00 Uhr
14.7
06:25 Uhr

88
06:40 Uhr
46
17:40 Uhr
1015.3
10:25 Uhr

1012.3
18:55 Uhr
1014.1
0,000
00:00 Uhr
0,000
2.946
260
714
12:35 Uhr
5.8
12:10 Uhr

06:06:00
7,6
2
40,2
20:25 Uhr

5
13.8
08:50 Uhr
10.7
19:40 Uhr
14.0
07:30 Uhr
6
00:35 Uhr
1.7
17:40 Uhr
5.5
16:05 Uhr
2.3
17:45 Uhr
25
Zeitraffer
14:07
23.4
15:00 Uhr
12.9
06:15 Uhr

86
04:45 Uhr
42
14:55 Uhr
1014.4
10:25 Uhr

1007.5
23:50 Uhr
1012.2
0,000
00:00 Uhr
0,000
3.658
362
846
14:45 Uhr
5.8
13:05 Uhr

07:57:00
5,0
1
24,1
17:45 Uhr

4
13.7
20:35 Uhr
9.6
15:30 Uhr
12.7
09:05 Uhr
7
20:45 Uhr
1.8
15:10 Uhr
5.7
16:25 Uhr
1.7
16:30 Uhr
26
Zeitraffer
14:03
21.4
09:00 Uhr
15.6
12:20 Uhr

89
12:55 Uhr
51
09:00 Uhr
1008.1
23:55 Uhr

1001.5
09:05 Uhr
1004.1
60,000
15:40 Uhr
10,000
2.286
99
411
08:50 Uhr
2.0
13:05 Uhr

01:21:00
11,4
2
53,1
17:10 Uhr

7
14.7
14:20 Uhr
10.9
09:00 Uhr
10.9
22:50 Uhr
8
21:15 Uhr
5.9
00:00 Uhr
5.9
00:00 Uhr
5.1
09:05 Uhr
27
Zeitraffer
13:59
19.1
15:00 Uhr
12.3
23:45 Uhr

93
01:05 Uhr
56
17:25 Uhr
1014.2
16:00 Uhr

1008.1
00:05 Uhr
1012.1
2,400
00:50 Uhr
0,600
2.692
206
753
11:40 Uhr
5.6
12:25 Uhr

02:39:00
12,3
2
56,3
09:50 Uhr

7
14.7
01:05 Uhr
9.6
17:25 Uhr
9.3
08:50 Uhr
8
00:00 Uhr
0.0
00:00 Uhr
2.6
17:45 Uhr
0.0
00:00 Uhr
28
Zeitraffer
13:56
23.1
18:00 Uhr
11.5
00:55 Uhr

90
00:20 Uhr
50
17:50 Uhr
1012.5
00:10 Uhr

1001.3
23:45 Uhr
1005.7
2,400
07:10 Uhr
0,200
2.007
203
816
11:40 Uhr
4.5
11:50 Uhr

02:37:00
4,3
1
30,6
12:10 Uhr

5
16.1
15:20 Uhr
9.9
00:55 Uhr
11.5
00:55 Uhr
8
20:45 Uhr
1.1
17:55 Uhr
5.3
17:00 Uhr
1.2
16:25 Uhr
29
Zeitraffer
13:51
22.9
17:00 Uhr
14.7
06:30 Uhr

88
05:20 Uhr
44
15:55 Uhr
1007.6
21:45 Uhr

1000.6
02:15 Uhr
1004.4
0,000
00:00 Uhr
0,000
2.464
224
894
13:40 Uhr
5.2
13:05 Uhr

02:29:00
3,5
1
25,7
16:30 Uhr

4
14.9
00:30 Uhr
10.0
15:55 Uhr
14.7
06:30 Uhr
9
00:30 Uhr
1.4
17:00 Uhr
5.7
16:15 Uhr
1.6
16:35 Uhr
30
Zeitraffer
13:47
24.1
15:00 Uhr
13.2
06:55 Uhr

95
20:25 Uhr
50
13:00 Uhr
1009.6
23:55 Uhr

1006.9
04:05 Uhr
1008.0
21,600
17:30 Uhr
11,000
3.404
185
597
12:20 Uhr
4.1
12:20 Uhr

02:05:00
2,6
1
27,4
16:10 Uhr

4
16.4
19:30 Uhr
11.8
06:50 Uhr
13.2
06:55 Uhr
10
20:35 Uhr
4.5
13:05 Uhr
5.9
09:05 Uhr
3.8
16:15 Uhr
31
Zeitraffer
13:44
23.2
16:00 Uhr
14.8
22:30 Uhr

95
00:00 Uhr
43
15:55 Uhr
1018.1
21:10 Uhr

1009.5
01:15 Uhr
1014.4
2,400
00:20 Uhr
0,600
2.362
253
865
12:35 Uhr
4.9
12:30 Uhr

04:31:00
4,3
1
30,6
16:10 Uhr

5
15.5
10:00 Uhr
10.3
15:55 Uhr
12.9
08:15 Uhr
9
00:00 Uhr
0.0
00:00 Uhr
0.2
16:00 Uhr
0.0
00:00 Uhr
Stationsstandorte || Wetterblog || Wissenswertes || Downloads || Seitenhistorie || Partner || Impressum / Datenschutz